Location: Newark
(59.4564°N, 26.6917°E)
Time: 21:54:54
(UTC+00:00)

SR - Pass Details

Date: 29 November 2019
Orbit: 573 x 882 km, 66.7° (Epoch: 15 December)

Event Time Altitude Azimuth Distance (km) Brightness Sun altitude
Rises 09:02:34 0° 149° (SSE) 3,290 ? 8.2°
Reaches altitude 10° 09:06:59 10° 115° (ESE) 2,440 ? 8.3°
Maximum altitude 09:08:28 11° 100° (E) 2,388 ? 8.4°
Drops below altitude 10° 09:09:58 10° 85° (E) 2,484 ? 8.4°
Sets 09:14:36 0° 52° (NE) 3,473 ? 8.5°
